Wind_Speed
84 85 87 87 88 88 89 90 91 92 90 89 91 91 90 88 87 88 87 86 86 85 84 83 82 80 79 78 77 76 74 74 73 72 71 70 69 68
84 84 84 84 85 85 86 87 88 90 89 86 88 89 90 88 87 88 87 86 85 85 84 83 82 81 80 79 78 77 76 75 74 73 73 72 71 70
80 80 80 80 80 80 80 81 82 83 83 80 81 83 85 85 84 84 84 84 83 82 82 83 82 81 80 80 79 78 77 76 75 74 74 73 72 72
78 77 76 75 75 75 74 74 74 75 76 74 73 75 76 77 77 77 78 79 79 79 79 79 80 80 80 79 79 78 78 77 75 75 74 74 73 73
74 73 71 70 69 68 67 67 67 67 67 66 64 66 68 69 71 71 72 72 73 74 74 75 76 76 77 77 76 76 76 75 75 74 74 74 73 73
68 66 65 63 62 61 61 61 61 60 60 60 59 59 61 62 64 64 65 66 67 69 70 71 71 72 73 74 74 73 73 73 73 72 73 72 72 72
62 60 58 57 56 56 56 55 54 55 55 55 54 53 54 56 57 59 60 61 62 64 65 67 67 68 69 69 70 70 70 70 70 70 70 70 70 70
56 55 54 53 52 51 51 51 50 50 50 51 50 50 49 51 53 54 56 57 58 59 61 62 63 64 64 65 66 67 68 69 69 69 69 68 68 68
53 51 50 49 48 48 47 47 47 48 48 48 47 46 47 48 50 51 52 53 54 55 56 57 58 59 60 62 63 65 66 66 66 66 66 67 67 67
49 48 47 46 46 46 45 44 43 43 44 45 45 45 45 46 47 48 48 50 51 52 52 52 53 54 56 58 60 61 62 62 63 64 64 65 65 65
46 46 46 45 44 44 44 42 41 41 42 43 44 44 43 44 44 45 46 47 48 48 49 49 50 52 53 55 56 57 58 58 59 60 61 61 62 63
44 44 43 42 41 41 41 40 40 39 40 41 41 41 42 42 43 43 44 45 45 46 46 48 49 50 51 52 53 54 55 55 56 57 58 59 60 61
41 40 40 39 39 38 38 38 38 38 38 38 38 39 39 40 41 42 42 43 43 44 44 45 46 48 48 48 50 51 52 53 54 55 57 58 59 60
39 38 38 37 36 36 36 37 37 37 37 37 37 37 38 38 39 39 40 41 41 42 42 43 44 45 46 47 48 49 50 51 53 54 55 56 57 58
38 37 36 35 35 35 35 36 36 36 36 36 35 35 36 36 36 37 38 39 39 40 40 41 42 43 44 46 47 48 49 50 51 52 54 55 56 57
36 35 35 34 34 33 33 33 33 33 33 33 33 33 33 34 34 35 36 37 38 38 38 39 39 41 42 43 44 45 47 48 49 50 52 53 54 55
34 34 34 33 32 31 31 31 31 31 31 31 31 31 31 31 32 33 34 35 36 37 38 38 39 39 40 41 41 42 43 45 47 49 50 50 51 51
34 34 33 32 31 30 30 30 30 30 30 30 30 30 30 31 32 33 34 35 36 37 38 39 40 40 40 39 39 40 41 42 44 46 47 48 49 50
33 32 32 31 30 29 29 29 29 29 30 30 30 30 31 32 33 33 35 36 37 37 38 39 40 40 40 39 39 40 41 42 43 44 45 46 46 47
32 31 30 30 29 29 28 28 29 29 29 30 30 31 31 32 32 33 33 35 36 36 37 38 39 39 39 39 39 39 41 41 42 42 43 45 45 46
30 30 29 28 28 28 28 28 28 28 29 29 30 30 31 31 31 31 32 32 33 34 35 36 37 38 38 39 38 38 40 41 42 43 44 45 45 45
30 30 29 29 28 28 28 28 28 28 29 29 29 29 30 30 30 30 30 31 31 32 32 33 35 36 37 38 38 38 40 41 42 43 43 44 45 45
30 30 29 29 29 29 28 28 28 28 28 28 28 28 29 29 29 30 30 30 30 30 31 32 33 35 36 37 38 38 39 40 40 41 41 42 43 43
Wind_Direction
286 285 283 282 280 279 278 276 275 273 271 270 269 268 266 265 264 263 262 261 261 260 259 259 259 259 259 259 259 259 259 259 259 259 259 260 260 260
288 287 285 284 282 280 278 277 276 275 273 271 269 268 267 265 264 263 262 261 260 259 258 258 258 258 257 257 258 258 258 258 258 258 258 259 259 259
290 289 287 285 283 281 279 278 276 275 274 271 269 268 267 265 263 263 262 261 260 259 258 257 256 256 256 256 257 257 257 257 257 256 257 258 258 258
292 290 288 286 285 283 281 279 278 276 275 272 269 268 267 265 263 262 261 261 260 259 258 257 256 255 255 255 255 255 256 256 256 256 256 257 257 258
292 291 289 287 286 284 282 281 279 277 276 274 271 268 267 266 264 263 262 261 259 258 257 256 256 255 254 254 254 254 254 254 255 255 255 256 256 257
293 292 290 288 286 284 282 281 279 277 276 275 273 270 268 266 265 263 262 260 259 258 257 255 255 254 253 253 253 253 253 253 253 254 255 255 255 256
294 292 290 289 287 285 283 281 279 278 277 276 274 271 269 267 265 263 261 260 259 258 257 255 255 254 253 252 251 251 252 252 253 253 254 254 254 254
294 292 290 288 287 285 283 281 280 279 278 276 275 272 269 267 266 264 262 260 259 258 257 256 255 254 253 253 252 252 252 252 252 252 253 253 253 252
295 293 291 289 287 286 284 282 280 279 278 277 275 272 270 268 266 265 263 261 259 258 257 256 255 254 254 253 253 252 252 252 252 252 252 252 251 251
296 294 292 291 288 286 284 282 280 278 278 276 275 273 271 269 268 266 264 262 260 259 257 256 255 254 254 253 252 252 251 251 252 252 251 252 251 251
297 295 294 292 290 287 285 283 281 279 277 276 275 274 272 270 269 267 265 264 262 259 258 257 255 254 253 253 252 252 252 252 252 251 251 251 250 250
297 297 295 294 291 288 285 284 282 280 278 276 275 274 272 271 269 267 266 264 263 261 259 257 256 255 254 252 252 252 252 251 251 251 250 250 250 251
299 298 296 294 292 289 287 285 284 282 279 277 275 274 272 271 269 268 266 265 264 262 259 257 256 255 254 253 252 252 252 252 251 251 251 251 251 252
300 299 298 295 292 290 288 286 284 283 281 279 276 274 273 271 269 267 266 265 263 262 260 257 256 255 254 254 253 253 253 252 252 252 252 252 252 252
300 300 299 297 294 291 289 287 286 284 282 281 279 276 274 272 270 268 267 265 263 262 260 259 258 257 256 255 255 254 253 253 253 253 253 253 253 253
300 300 299 298 296 293 291 289 287 285 284 282 280 278 275 273 271 269 267 265 263 261 260 260 259 258 258 257 256 255 255 254 254 255 255 254 254 254
300 300 300 298 296 293 292 290 289 288 286 284 282 280 277 275 273 271 269 267 265 263 261 261 260 260 259 259 258 257 256 256 255 255 255 254 254 254
303 303 301 300 298 295 293 291 290 289 288 286 284 281 278 276 274 273 272 269 267 265 263 262 262 261 260 259 259 258 257 257 256 256 256 256 255 255
305 304 302 300 298 296 293 292 291 290 288 287 285 282 281 279 278 276 275 272 269 266 264 263 262 261 261 260 259 259 259 258 258 258 258 257 256 255
307 306 305 303 301 298 295 294 293 291 290 288 285 284 283 282 280 279 277 274 271 268 266 264 262 262 261 260 259 258 259 260 260 261 260 259 258 256
307 307 306 305 303 301 298 297 296 294 292 290 288 287 285 283 282 281 279 277 274 270 267 265 263 262 261 261 260 260 260 261 262 262 262 261 260 259
306 307 306 305 304 303 301 299 297 296 294 292 290 289 287 285 283 282 281 279 276 272 269 266 265 264 264 264 264 263 263 263 263 263 263 263 262 261
306 306 306 305 305 304 303 301 299 297 295 294 292 291 289 287 285 284 283 279 276 273 271 269 267 267 267 267 266 265 264 264 263 264 264 264 263 262
Height
5578 5571 5564 5558 5552 5547 5542 5538 5535 5536 5541 5543 5538 5537 5537 5539 5539 5538 5541 5544 5547 5550 5554 5557 5561 5564 5567 5571 5574 5577 5581 5584 5587 5590 5593 5596 5598 5601
5551 5544 5537 5531 5524 5519 5514 5510 5506 5504 5507 5518 5511 5508 5507 5510 5510 5510 5513 5516 5520 5524 5528 5532 5536 5540 5544 5548 5551 5555 5559 5562 5566 5569 5572 5575 5578 5581
5525 5518 5512 5504 5498 5493 5487 5484 5480 5477 5476 5486 5484 5481 5479 5481 5483 5483 5485 5488 5493 5498 5502 5506 5511 5515 5520 5524 5528 5532 5536 5540 5544 5548 5551 5555 5558 5562
5501 5493 5487 5479 5474 5469 5463 5459 5456 5453 5450 5455 5460 5456 5454 5455 5457 5458 5460 5463 5468 5472 5476 5480 5485 5490 5495 5500 5505 5509 5514 5518 5522 5526 5531 5534 5537 5540
5478 5470 5464 5457 5452 5447 5442 5438 5435 5432 5430 5430 5436 5435 5432 5433 5433 5436 5438 5440 5443 5447 5451 5455 5460 5466 5471 5476 5482 5487 5492 5497 5501 5504 5508 5512 5516 5519
5456 5449 5443 5437 5432 5427 5423 5420 5416 5413 5411 5411 5414 5414 5413 5413 5412 5415 5417 5419 5421 5424 5428 5433 5437 5442 5448 5454 5461 5465 5469 5473 5478 5482 5486 5490 5494 5498
5437 5430 5425 5419 5414 5409 5405 5403 5399 5397 5395 5394 5395 5395 5396 5395 5395 5396 5397 5399 5401 5404 5408 5413 5417 5422 5427 5432 5437 5442 5447 5452 5456 5460 5464 5468 5473 5477
5420 5414 5409 5404 5399 5394 5390 5387 5384 5382 5380 5379 5378 5379 5379 5378 5378 5378 5380 5382 5385 5389 5389 5393 5397 5402 5407 5412 5417 5421 5426 5430 5435 5439 5443 5448 5452 5456
5403 5398 5393 5389 5384 5380 5376 5373 5370 5367 5366 5364 5363 5364 5363 5363 5362 5363 5364 5365 5368 5369 5372 5376 5379 5384 5388 5392 5397 5401 5405 5409 5414 5419 5423 5427 5432 5436
5388 5383 5378 5374 5370 5366 5362 5360 5357 5355 5352 5350 5349 5349 5349 5348 5348 5348 5348 5350 5352 5354 5356 5360 5363 5366 5369 5374 5378 5382 5386 5390 5395 5399 5403 5408 5412 5416
5375 5370 5365 5360 5356 5352 5348 5346 5344 5343 5340 5337 5336 5335 5334 5334 5334 5334 5335 5335 5337 5339 5341 5344 5347 5349 5352 5357 5361 5364 5368 5372 5376 5380 5384 5389 5393 5397
5362 5357 5352 5347 5343 5339 5335 5333 5331 5330 5327 5325 5323 5322 5321 5321 5320 5320 5321 5322 5323 5325 5327 5328 5331 5333 5337 5341 5344 5347 5351 5355 5359 5362 5366 5370 5374 5377
5350 5345 5340 5335 5331 5327 5323 5321 5319 5316 5314 5313 5311 5310 5309 5308 5308 5307 5308 5308 5309 5311 5313 5314 5316 5318 5321 5325 5328 5331 5335 5338 5342 5345 5349 5353 5356 5360
5338 5333 5329 5324 5319 5316 5312 5310 5307 5304 5302 5301 5299 5298 5297 5296 5295 5295 5295 5295 5296 5297 5298 5300 5302 5304 5307 5310 5313 5316 5319 5322 5325 5329 5332 5335 5338 5342
5326 5322 5317 5313 5309 5305 5302 5299 5296 5293 5291 5289 5288 5286 5285 5284 5284 5283 5283 5283 5284 5285 5286 5287 5289 5291 5293 5295 5298 5300 5303 5306 5308 5311 5314 5317 5321 5324
5316 5312 5307 5302 5298 5295 5291 5288 5285 5282 5280 5278 5276 5275 5274 5273 5272 5272 5271 5271 5272 5273 5274 5275 5276 5277 5279 5281 5283 5285 5287 5290 5292 5294 5297 5300 5303 5306
5306 5301 5297 5293 5288 5285 5281 5278 5275 5273 5270 5268 5266 5265 5263 5262 5261 5261 5260 5260 5260 5261 5262 5262 5263 5264 5266 5267 5269 5271 5272 5274 5276 5278 5280 5283 5287 5289
5295 5291 5286 5282 5278 5275 5272 5269 5266 5263 5261 5258 5256 5255 5253 5252 5251 5250 5249 5248 5248 5249 5249 5250 5250 5251 5253 5255 5257 5257 5258 5260 5261 5263 5264 5267 5271 5273
5285 5281 5276 5272 5268 5265 5262 5259 5256 5254 5251 5249 5247 5245 5243 5242 5240 5239 5237 5236 5236 5236 5236 5236 5237 5238 5240 5242 5244 5244 5244 5245 5246 5248 5250 5252 5255 5257
5276 5272 5267 5263 5259 5256 5253 5250 5247 5244 5241 5239 5237 5235 5233 5231 5229 5227 5226 5224 5223 5223 5223 5223 5224 5225 5226 5228 5229 5230 5230 5231 5232 5233 5235 5236 5238 5240
5268 5264 5259 5255 5251 5247 5244 5241 5238 5235 5232 5229 5227 5225 5222 5220 5218 5217 5215 5213 5211 5211 5211 5211 5211 5212 5212 5213 5215 5217 5217 5217 5218 5218 5219 5220 5222 5224
5260 5256 5251 5247 5243 5239 5235 5232 5228 5225 5222 5220 5217 5215 5212 5210 5208 5206 5204 5202 5201 5200 5199 5199 5199 5199 5199 5200 5201 5202 5203 5202 5202 5202 5203 5205 5205 5207
5252 5247 5243 5238 5234 5230 5226 5222 5219 5216 5213 5210 5208 5205 5202 5200 5198 5196 5194 5192 5190 5189 5188 5188 5187 5187 5187 5187 5187 5188 5188 5188 5187 5188 5189 5189 5189 5190